• En España
  • Lista de países
  • Para 7 días
  • Temperatura del agua
  • Mapa Satelital
  • El tiempo en el mapa
  • Informadores
  • user-avatar
    Iniciar sesión

    Tiempo cada hora Ramadi

    Hoy, 25 Septiembre, Martes

    Tiempo Temperatura Precipitaciones Viento Presión Humedad
    00:00 +35°C° 0 mm 2 mps 752 mmHg 17%
    01:00 +34°C° 0 mm 2 mps 752 mmHg 17%
    02:00 +34°C° 0 mm 3 mps 752 mmHg 18%
    03:00 +34°C° 0 mm 3 mps 752 mmHg 18%
    04:00 +33°C° 0 mm 3 mps 752 mmHg 19%
    05:00 +33°C° 0 mm 3 mps 752 mmHg 19%
    06:00 +31°C° 0 mm 3 mps 752 mmHg 20%
    07:00 +34°C° 0 mm 3 mps 752 mmHg 18%
    08:00 +36°C° 0 mm 3 mps 753 mmHg 15%
    09:00 +37°C° 0 mm 4 mps 753 mmHg 13%
    10:00 +38°C° 0 mm 4 mps 753 mmHg 12%
    11:00 +40°C° 0 mm 3 mps 752 mmHg 11%
    12:00 +42°C° 0 mm 3 mps 752 mmHg 10%
    13:00 +42°C° 0 mm 3 mps 752 mmHg 10%
    14:00 +43°C° 0 mm 3 mps 751 mmHg 10%
    15:00 +43°C° 0 mm 3 mps 750 mmHg 10%
    16:00 +42°C° 0 mm 3 mps 750 mmHg 10%
    17:00 +40°C° 0 mm 2 mps 750 mmHg 11%
    18:00 +39°C° 0 mm 2 mps 750 mmHg 12%
    19:00 +38°C° 0 mm 2 mps 750 mmHg 12%
    20:00 +38°C° 0 mm 2 mps 750 mmHg 13%
    21:00 +37°C° 0 mm 2 mps 750 mmHg 14%
    22:00 +36°C° 0 mm 2 mps 750 mmHg 14%
    23:00 +35°C° 0 mm 2 mps 750 mmHg 15%

    Mañana, 26 Septiembre, Miércoles

    Tiempo Temperatura Precipitaciones Viento Presión Humedad
    00:00 +35°C° 0 mm 2 mps 750 mmHg 16%
    01:00 +34°C° 0 mm 2 mps 750 mmHg 16%
    02:00 +34°C° 0 mm 2 mps 750 mmHg 16%
    03:00 +34°C° 0 mm 2 mps 750 mmHg 16%
    04:00 +32°C° 0 mm 2 mps 750 mmHg 16%
    05:00 +32°C° 0 mm 2 mps 750 mmHg 17%
    06:00 +31°C° 0 mm 2 mps 750 mmHg 17%
    07:00 +34°C° 0 mm 2 mps 751 mmHg 16%
    08:00 +35°C° 0 mm 2 mps 751 mmHg 14%
    09:00 +37°C° 0 mm 2 mps 752 mmHg 13%
    10:00 +38°C° 0 mm 2 mps 751 mmHg 12%
    11:00 +39°C° 0 mm 2 mps 751 mmHg 11%
    12:00 +41°C° 0 mm 2 mps 751 mmHg 10%
    13:00 +41°C° 0 mm 2 mps 750 mmHg 10%
    14:00 +41°C° 0 mm 2 mps 750 mmHg 10%
    15:00 +42°C° 0 mm 2 mps 749 mmHg 10%
    16:00 +41°C° 0 mm 2 mps 749 mmHg 10%
    17:00 +40°C° 0 mm 2 mps 749 mmHg 11%
    18:00 +39°C° 0 mm 2 mps 749 mmHg 11%
    19:00 +38°C° 0 mm 2 mps 749 mmHg 12%
    20:00 +38°C° 0 mm 3 mps 750 mmHg 13%
    21:00 +37°C° 0 mm 3 mps 750 mmHg 13%
    22:00 +37°C° 0 mm 3 mps 750 mmHg 14%
    23:00 +36°C° 0 mm 3 mps 750 mmHg 14%

    Pasado mañana, 27 Septiembre, Jueves

    Tiempo Temperatura Precipitaciones Viento Presión Humedad
    00:00 +36°C° 0 mm 3 mps 750 mmHg 15%
    01:00 +35°C° 0 mm 3 mps 750 mmHg 15%
    02:00 +35°C° 0 mm 3 mps 750 mmHg 16%
    03:00 +34°C° 0 mm 3 mps 750 mmHg 17%
    04:00 +33°C° 0 mm 3 mps 750 mmHg 17%
    05:00 +32°C° 0 mm 2 mps 750 mmHg 18%
    06:00 +31°C° 0 mm 2 mps 751 mmHg 18%
    07:00 +34°C° 0 mm 2 mps 751 mmHg 16%
    08:00 +35°C° 0 mm 1 mps 751 mmHg 15%
    09:00 +36°C° 0 mm 1 mps 752 mmHg 13%
    10:00 +39°C° 0 mm 1 mps 752 mmHg 12%
    11:00 +40°C° 0 mm 1 mps 752 mmHg 11%
    12:00 +42°C° 0 mm 1 mps 752 mmHg 10%
    13:00 +42°C° 0 mm 2 mps 751 mmHg 10%
    14:00 +43°C° 0 mm 2 mps 751 mmHg 9%
    15:00 +43°C° 0 mm 2 mps 751 mmHg 9%
    16:00 +42°C° 0 mm 2 mps 751 mmHg 9%
    17:00 +41°C° 0 mm 2 mps 751 mmHg 10%
    18:00 +40°C° 0 mm 2 mps 751 mmHg 10%
    19:00 +39°C° 0 mm 2 mps 752 mmHg 11%
    20:00 +38°C° 0 mm 2 mps 752 mmHg 12%
    21:00 +37°C° 0 mm 2 mps 753 mmHg 13%
    22:00 +37°C° 0 mm 2 mps 753 mmHg 13%
    23:00 +36°C° 0 mm 2 mps 753 mmHg 13%

    28 Septiembre, Viernes

    Tiempo Temperatura Precipitaciones Viento Presión Humedad
    00:00 +36°C° 0 mm 3 mps 753 mmHg 13%
    01:00 +35°C° 0 mm 3 mps 753 mmHg 15%
    02:00 +34°C° 0 mm 4 mps 753 mmHg 16%
    03:00 +34°C° 0 mm 4 mps 753 mmHg 18%
    04:00 +33°C° 0 mm 4 mps 753 mmHg 20%
    05:00 +33°C° 0 mm 4 mps 753 mmHg 22%
    06:00 +32°C° 0 mm 4 mps 753 mmHg 24%
    07:00 +34°C° 0 mm 5 mps 754 mmHg 22%
    08:00 +35°C° 0 mm 5 mps 754 mmHg 20%
    09:00 +37°C° 0 mm 5 mps 754 mmHg 18%
    10:00 +39°C° 0 mm 6 mps 754 mmHg 16%
    11:00 +41°C° 0 mm 6 mps 754 mmHg 13%
    12:00 +44°C° 0 mm 6 mps 754 mmHg 11%
    13:00 +44°C° 0 mm 6 mps 754 mmHg 11%
    14:00 +45°C° 0 mm 6 mps 753 mmHg 10%
    15:00 +45°C° 0 mm 6 mps 753 mmHg 10%
    16:00 +43°C° 0 mm 5 mps 753 mmHg 11%
    17:00 +42°C° 0 mm 5 mps 753 mmHg 12%
    18:00 +41°C° 0 mm 4 mps 753 mmHg 14%
    19:00 +40°C° 0 mm 4 mps 753 mmHg 15%
    20:00 +39°C° 0 mm 5 mps 754 mmHg 17%
    21:00 +37°C° 0 mm 5 mps 754 mmHg 18%
    22:00 +37°C° 0 mm 5 mps 754 mmHg 19%
    23:00 +36°C° 0 mm 5 mps 754 mmHg 20%

    29 Septiembre, Sábado

    Tiempo Temperatura Precipitaciones Viento Presión Humedad
    00:00 +36°C° 0 mm 5 mps 753 mmHg 22%
    01:00 +35°C° 0 mm 5 mps 753 mmHg 23%
    02:00 +35°C° 0 mm 4 mps 753 mmHg 25%
    03:00 +34°C° 0 mm 4 mps 753 mmHg 26%
    04:00 +34°C° 0 mm 4 mps 753 mmHg 27%
    05:00 +33°C° 0 mm 4 mps 753 mmHg 28%
    06:00 +33°C° 0 mm 4 mps 753 mmHg 28%
    07:00 +34°C° 0 mm 4 mps 754 mmHg 25%
    08:00 +35°C° 0 mm 4 mps 754 mmHg 22%
    09:00 +37°C° 0 mm 5 mps 754 mmHg 20%
    10:00 +39°C° 0 mm 5 mps 754 mmHg 17%
    11:00 +41°C° 0 mm 5 mps 754 mmHg 15%
    12:00 +42°C° 0 mm 4 mps 754 mmHg 12%
    13:00 +43°C° 0 mm 4 mps 753 mmHg 12%
    14:00 +43°C° 0 mm 4 mps 753 mmHg 11%
    15:00 +44°C° 0 mm 4 mps 752 mmHg 11%
    16:00 +43°C° 0 mm 4 mps 752 mmHg 12%
    17:00 +42°C° 0 mm 3 mps 752 mmHg 12%
    18:00 +40°C° 0 mm 2 mps 752 mmHg 13%
    19:00 +39°C° 0 mm 2 mps 752 mmHg 14%
    20:00 +38°C° 0 mm 2 mps 752 mmHg 15%
    21:00 +36°C° 0 mm 1 mps 752 mmHg 15%
    22:00 +36°C° 0 mm 1 mps 752 mmHg 16%
    23:00 +35°C° 0 mm 1 mps 752 mmHg 17%

    30 Septiembre, Domingo

    Tiempo Temperatura Precipitaciones Viento Presión Humedad
    00:00 +35°C° 0 mm 1 mps 752 mmHg 17%
    01:00 +34°C° 0 mm 1 mps 752 mmHg 18%
    02:00 +34°C° 0 mm 1 mps 752 mmHg 18%
    03:00 +33°C° 0 mm 1 mps 752 mmHg 19%
    04:00 +33°C° 0 mm 1 mps 752 mmHg 19%
    05:00 +33°C° 0 mm 1 mps 752 mmHg 19%
    06:00 +33°C° 0 mm 1 mps 752 mmHg 19%
    07:00 +35°C° 0 mm 1 mps 752 mmHg 17%
    08:00 +36°C° 0 mm 1 mps 753 mmHg 16%
    09:00 +39°C° 0 mm 2 mps 753 mmHg 14%
    10:00 +40°C° 0 mm 2 mps 753 mmHg 14%
    11:00 +41°C° 0 mm 1 mps 753 mmHg 13%
    12:00 +42°C° 0 mm 1 mps 752 mmHg 12%
    13:00 +43°C° 0 mm 1 mps 752 mmHg 12%
    14:00 +43°C° 0 mm 1 mps 751 mmHg 12%
    15:00 +43°C° 0 mm 1 mps 751 mmHg 12%
    16:00 +42°C° 0 mm 2 mps 751 mmHg 13%
    17:00 +42°C° 0 mm 3 mps 751 mmHg 14%
    18:00 +40°C° 0 mm 3 mps 751 mmHg 15%
    19:00 +40°C° 0 mm 4 mps 752 mmHg 18%
    20:00 +39°C° 0 mm 5 mps 752 mmHg 21%
    21:00 +38°C° 0 mm 6 mps 752 mmHg 24%
    22:00 +36°C° 0 mm 6 mps 752 mmHg 27%
    23:00 +36°C° 0 mm 6 mps 752 mmHg 29%
    Mostrar más